Mitchell, SD

11:03 PM CST on November 16, 2019 (GMT -0600)
Mitchell Municipal

Weather History for KMHE - September, 2019

Change the Weather History Date:

Tuesday, September 10, 2019

  Actual Average Record
Temperature  
Mean Temperature 70 °F 65 °F  
Max Temperature 81 °F 78 °F 104 °F (1931)
Min Temperature 58 °F 52 °F 32 °F (1940)
Degree Days  
Heating Degree Days 0 3  
Month to date heating degree days 2 22  
Since 1 July heating degree days 11 39  
Cooling Degree Days 5 3  
Month to date cooling degree days 52 42  
Year to date cooling degree days 846 787  
Growing Degree Days 20 (Base 50)    
Moisture  
Dew Point 61 °F    
Average Humidity 69    
Maximum Humidity 93    
Minimum Humidity 45    
Precipitation  
Precipitation 2.42 in 0.07 in 2.69 in (2003)
Month to date precipitation 2.94 0.80  
Year to date precipitation 27.98 17.15  
Snow  
Snow 0.00 in - 0.00 in ()
Month to date snowfall 0.0  
Since 1 July snowfall 0.0  
Since 1 September snowfall 0.0  
Snow Depth 0.00 in    
Sea Level Pressure  
Sea Level Pressure 29.95 in    
Wind  
Wind Speed 9 mph (North)    
Max Wind Speed 24 mph    
Max Gust Speed 37 mph    
Visibility 7 miles    
Events Fog , Rain , Thunderstorm    
T = Trace of Precipitation, MM = Missing Value Source: NWS Daily Summary

Daily Weather History Graph

Daily Weather History Graph

Search for Another Location

Airport or City:

Astronomy

Sep. 10, 2019 Rise Set
Actual Time 7:05 AM CDT 7:51 PM CDT
Civil Twilight 6:36 AM CDT 8:20 PM CDT
Nautical Twilight 6:01 AM CDT 8:55 PM CDT
Astronomical Twilight 5:25 AM CDT 9:31 PM CDT
Moon 6:36 PM CDT (9/10) 3:24 AM CDT (9/10)
Length of Visible Light 13h 44m
Length of Day
12h 46m
Waxing Gibbous, 89% of the Moon is Illuminated
Sep 10
Waxing Gibbous
Sep 13
Full
Sep 21
Last Quarter
Sep 28
New
Oct 5
First Quarter

Hourly Weather History & Observations

Time (CDT) Temp. Heat Index Dew Point Humidity Pressure Visibility Wind Dir Wind Speed Gust Speed Precip Events Conditions
12:53 AM 66.9 °F - 62.1 °F 84% 29.81 in 10.0 mi NNW 5.8 mph - N/A   Clear
1:53 AM 64.9 °F - 61.0 °F 87% 29.85 in 10.0 mi NW 5.8 mph - N/A   Clear
2:53 AM 64.0 °F - 61.0 °F 90% 29.86 in 10.0 mi NW 5.8 mph - N/A   Clear
3:53 AM 62.1 °F - 60.1 °F 93% 29.87 in 9.0 mi NW 5.8 mph - N/A   Clear
4:53 AM 61.0 °F - 57.9 °F 90% 29.88 in 10.0 mi NW 5.8 mph - N/A   Clear
5:53 AM 61.0 °F - 57.9 °F 90% 29.90 in 10.0 mi West 3.5 mph - N/A   Clear
6:53 AM 59.0 °F - 57.0 °F 93% 29.93 in 9.0 mi WSW 3.5 mph - N/A   Clear
7:53 AM 60.1 °F - 57.0 °F 90% 29.96 in 10.0 mi West 3.5 mph - N/A   Clear
8:53 AM 64.9 °F - 61.0 °F 87% 29.97 in 10.0 mi WNW 4.6 mph - N/A   Clear
9:53 AM 69.1 °F - 61.0 °F 75% 29.98 in 10.0 mi Variable 3.5 mph - N/A   Clear
10:53 AM 73.0 °F - 61.0 °F 66% 29.98 in 10.0 mi NE 5.8 mph - N/A   Clear
11:53 AM 75.0 °F - 59.0 °F 57% 30.00 in 10.0 mi NE 9.2 mph - N/A   Clear
12:53 PM 75.9 °F - 59.0 °F 56% 29.99 in 10.0 mi Variable 4.6 mph - N/A   Clear
2:53 PM 80.1 °F 80.6 °F 57.9 °F 47% 29.98 in 10.0 mi NE 10.4 mph - N/A   Clear
3:53 PM 80.1 °F 80.7 °F 59.0 °F 48% 29.96 in 10.0 mi East 12.7 mph - N/A   Clear
4:53 PM 81.0 °F 81.6 °F 60.1 °F 49% 29.94 in 10.0 mi ENE 9.2 mph - N/A   Clear
5:53 PM 77.0 °F - 60.1 °F 56% 29.93 in 10.0 mi ENE 10.4 mph - N/A   Clear
6:53 PM 73.9 °F - 63.0 °F 68% 29.92 in 10.0 mi ENE 9.2 mph - N/A   Clear
7:53 PM 73.0 °F - 62.1 °F 68% 29.87 in 10.0 mi NE 13.8 mph - N/A   Partly Cloudy
8:48 PM 71.6 °F - 62.6 °F 73% 29.85 in 10.0 mi NE 16.1 mph 26.5 mph N/A Thunderstorm Thunderstorm
8:53 PM 72.0 °F - 62.1 °F 71% 29.86 in 10.0 mi NE 15.0 mph 25.3 mph N/A Thunderstorm Thunderstorm
9:00 PM 71.1 °F - 63.0 °F 75% 29.91 in 10.0 mi NE 11.5 mph 23.0 mph 0.00 in Rain , Thunderstorm Light Thunderstorms and Rain
9:11 PM 70.0 °F - 63.0 °F 78% 29.92 in 10.0 mi NNE 10.4 mph - 0.01 in Rain , Thunderstorm Light Thunderstorms and Rain
9:20 PM 69.1 °F - 63.0 °F 81% 29.90 in 7.0 mi NNE 15.0 mph 24.2 mph 0.04 in Rain , Thunderstorm Thunderstorms and Rain
9:29 PM 68.0 °F - 64.0 °F 87% 29.94 in 1.5 mi NE 13.8 mph 27.6 mph 0.25 in Rain , Thunderstorm Heavy Thunderstorms and Rain
9:38 PM 66.9 °F - 64.9 °F 93% 30.01 in 0.8 mi WSW 16.1 mph 23.0 mph 0.63 in Rain , Thunderstorm Heavy Rain
9:40 PM 66.9 °F - 64.9 °F 93% 30.01 in 0.5 mi WSW 17.3 mph 26.5 mph 0.75 in Fog , Rain , Thunderstorm Heavy Thunderstorms and Rain
9:53 PM 66.0 °F - 64.0 °F 93% 30.00 in 0.5 mi North 13.8 mph 31.1 mph 1.72 in Fog , Rain , Thunderstorm Heavy Thunderstorms and Rain
9:59 PM 66.0 °F - 64.0 °F 93% 30.03 in 0.8 mi NNW 15.0 mph 26.5 mph 0.07 in Rain , Thunderstorm Heavy Rain
10:06 PM 66.9 °F - 64.0 °F 90% 30.04 in 1.8 mi NNW 19.6 mph 27.6 mph 0.15 in Rain , Thunderstorm Heavy Rain
10:23 PM 66.0 °F - 63.0 °F 90% 30.02 in 3.0 mi North 20.7 mph 34.5 mph 0.29 in Rain , Thunderstorm Rain
10:26 PM 66.0 °F - 63.0 °F 90% 30.02 in 4.0 mi North 18.4 mph 34.5 mph 0.29 in Rain Rain
10:35 PM 66.0 °F - 63.0 °F 90% 30.03 in 6.0 mi NNE 18.4 mph 29.9 mph 0.31 in Rain , Thunderstorm Rain
10:53 PM 64.0 °F - 62.1 °F 93% 29.99 in 4.0 mi NNE 16.1 mph 27.6 mph 0.36 in Rain , Thunderstorm Rain
11:00 PM 64.0 °F - 62.1 °F 93% 30.00 in 4.0 mi NE 24.2 mph 33.4 mph 0.02 in Rain Rain
11:09 PM 64.0 °F - 61.0 °F 90% 29.99 in 4.0 mi NNE 21.9 mph 36.8 mph 0.05 in Rain , Thunderstorm Rain
11:24 PM 63.0 °F - 60.1 °F 90% 30.02 in 8.0 mi NNE 19.6 mph 33.4 mph 0.09 in Rain Rain
11:53 PM 63.0 °F - 60.1 °F 90% 30.00 in 5.0 mi NE 16.1 mph 24.2 mph 0.16 in Rain , Thunderstorm Heavy Thunderstorms and Rain